• In Russia
  • List of Countries
  • For 7 days
  • Water Temperature
  • Satellite Maps
  • Weather Map
  • Weather Widgets
  • user-avatar
    Login

    Hourly Weather Ischgl

    Today, 21 November, Tuesday

    Time Temperature Precipitation Wind Pressure Humidity
    00:00 -8°C° 0 mm 2 mps 571 mmHg 79%
    01:00 -8°C° 0 mm 3 mps 571 mmHg 80%
    02:00 -7°C° 0.4 mm 2 mps 571 mmHg 83%
    03:00 -6°C° 0.4 mm 2 mps 571 mmHg 86%
    04:00 -6°C° 0.4 mm 2 mps 571 mmHg 89%
    05:00 -6°C° 0.3 mm 2 mps 572 mmHg 90%
    06:00 -6°C° 0.3 mm 2 mps 572 mmHg 91%
    07:00 -6°C° 0.3 mm 2 mps 572 mmHg 92%
    08:00 -5°C° 0.1 mm 2 mps 572 mmHg 91%
    09:00 -4°C° 0.1 mm 2 mps 573 mmHg 90%
    10:00 -4°C° 0.1 mm 2 mps 573 mmHg 89%
    11:00 -3°C° 0.1 mm 2 mps 573 mmHg 90%
    12:00 -3°C° 0.1 mm 2 mps 573 mmHg 91%
    13:00 -2°C° 0.1 mm 2 mps 573 mmHg 92%
    14:00 -2°C° 0 mm 2 mps 573 mmHg 91%
    15:00 -3°C° 0 mm 2 mps 573 mmHg 91%
    16:00 -3°C° 0 mm 2 mps 572 mmHg 90%
    17:00 -4°C° 0 mm 2 mps 572 mmHg 88%
    18:00 -5°C° 0 mm 2 mps 572 mmHg 87%
    19:00 -6°C° 0 mm 2 mps 572 mmHg 86%
    20:00 -6°C° 0 mm 2 mps 572 mmHg 84%
    21:00 -6°C° 0 mm 2 mps 572 mmHg 82%
    22:00 -6°C° 0 mm 2 mps 572 mmHg 80%
    23:00 -6°C° 0 mm 2 mps 572 mmHg 77%

    Tomorrow, 22 November, Wednesday

    Time Temperature Precipitation Wind Pressure Humidity
    00:00 -6°C° 0 mm 2 mps 572 mmHg 74%
    01:00 -6°C° 0 mm 2 mps 571 mmHg 71%
    02:00 -6°C° 0 mm 2 mps 571 mmHg 69%
    03:00 -6°C° 0 mm 2 mps 571 mmHg 67%
    04:00 -7°C° 0 mm 2 mps 571 mmHg 64%
    05:00 -7°C° 0 mm 2 mps 571 mmHg 63%
    06:00 -7°C° 0 mm 2 mps 571 mmHg 61%
    07:00 -7°C° 0 mm 2 mps 571 mmHg 60%
    08:00 -5°C° 0 mm 2 mps 572 mmHg 62%
    09:00 -4°C° 0 mm 2 mps 572 mmHg 64%
    10:00 -2°C° 0 mm 2 mps 573 mmHg 67%
    11:00 -1°C° 0 mm 2 mps 573 mmHg 72%
    12:00 +1°C° 0 mm 2 mps 574 mmHg 77%
    13:00 +2°C° 0 mm 2 mps 574 mmHg 83%
    14:00 -1°C° 0 mm 2 mps 573 mmHg 81%
    15:00 -2°C° 0 mm 2 mps 572 mmHg 79%
    16:00 -3°C° 0 mm 2 mps 572 mmHg 77%
    17:00 -4°C° 0 mm 2 mps 571 mmHg 77%
    18:00 -5°C° 0 mm 2 mps 571 mmHg 76%
    19:00 -7°C° 0 mm 3 mps 571 mmHg 76%
    20:00 -7°C° 0 mm 3 mps 571 mmHg 75%
    21:00 -7°C° 0 mm 3 mps 571 mmHg 75%
    22:00 -7°C° 0 mm 3 mps 571 mmHg 74%
    23:00 -7°C° 0 mm 3 mps 571 mmHg 74%

    Day after tomorrow, 23 November, Thursday

    Time Temperature Precipitation Wind Pressure Humidity
    00:00 -8°C° 0 mm 3 mps 571 mmHg 74%
    01:00 -8°C° 0 mm 3 mps 570 mmHg 74%
    02:00 -8°C° 0 mm 3 mps 570 mmHg 74%
    03:00 -8°C° 0 mm 3 mps 570 mmHg 74%
    04:00 -8°C° 0 mm 3 mps 570 mmHg 74%
    05:00 -8°C° 0 mm 3 mps 570 mmHg 73%
    06:00 -7°C° 0 mm 2 mps 570 mmHg 72%
    07:00 -8°C° 0 mm 2 mps 570 mmHg 71%
    08:00 -6°C° 0 mm 2 mps 571 mmHg 71%
    09:00 -4°C° 0 mm 2 mps 572 mmHg 71%
    10:00 -1°C° 0 mm 1 mps 573 mmHg 70%
    11:00 0°C° 0 mm 1 mps 574 mmHg 74%
    12:00 +1°C° 0 mm 1 mps 574 mmHg 78%
    13:00 +2°C° 0 mm 1 mps 575 mmHg 81%
    14:00 +1°C° 0 mm 1 mps 574 mmHg 78%
    15:00 0°C° 0 mm 1 mps 574 mmHg 75%
    16:00 -1°C° 0 mm 1 mps 573 mmHg 72%
    17:00 -2°C° 0 mm 1 mps 573 mmHg 71%
    18:00 -3°C° 0 mm 1 mps 573 mmHg 69%
    19:00 -4°C° 0 mm 1 mps 573 mmHg 68%
    20:00 -4°C° 0 mm 1 mps 573 mmHg 66%
    21:00 -6°C° 0 mm 1 mps 573 mmHg 64%
    22:00 -6°C° 0 mm 1 mps 573 mmHg 63%
    23:00 -7°C° 0 mm 2 mps 573 mmHg 63%

    24 November, Friday

    Time Temperature Precipitation Wind Pressure Humidity
    00:00 -7°C° 0 mm 2 mps 573 mmHg 63%
    01:00 -7°C° 0 mm 2 mps 573 mmHg 63%
    02:00 -7°C° 0 mm 2 mps 573 mmHg 64%
    03:00 -7°C° 0 mm 2 mps 573 mmHg 65%
    04:00 -7°C° 0 mm 2 mps 573 mmHg 66%
    05:00 -7°C° 0 mm 2 mps 573 mmHg 67%
    06:00 -6°C° 0 mm 2 mps 573 mmHg 68%
    07:00 -7°C° 0 mm 3 mps 573 mmHg 69%
    08:00 -6°C° 0 mm 3 mps 574 mmHg 70%
    09:00 -5°C° 0 mm 3 mps 575 mmHg 70%
    10:00 -4°C° 0 mm 3 mps 575 mmHg 71%
    11:00 -2°C° 0 mm 2 mps 575 mmHg 73%
    12:00 -1°C° 0 mm 2 mps 575 mmHg 75%
    13:00 +1°C° 0 mm 2 mps 576 mmHg 78%
    14:00 -1°C° 0 mm 2 mps 575 mmHg 78%
    15:00 -2°C° 0 mm 2 mps 574 mmHg 78%
    16:00 -3°C° 0 mm 2 mps 574 mmHg 79%
    17:00 -4°C° 0 mm 2 mps 574 mmHg 77%
    18:00 -5°C° 0 mm 2 mps 573 mmHg 76%
    19:00 -6°C° 0 mm 2 mps 573 mmHg 75%
    20:00 -6°C° 0 mm 2 mps 573 mmHg 73%
    21:00 -6°C° 0 mm 2 mps 573 mmHg 71%
    22:00 -5°C° 0 mm 2 mps 574 mmHg 69%
    23:00 -5°C° 0 mm 2 mps 574 mmHg 69%

    25 November, Saturday

    Time Temperature Precipitation Wind Pressure Humidity
    00:00 -5°C° 0 mm 2 mps 574 mmHg 69%
    01:00 -5°C° 0 mm 2 mps 574 mmHg 69%
    02:00 -5°C° 0 mm 2 mps 573 mmHg 70%
    03:00 -6°C° 0 mm 3 mps 573 mmHg 72%
    04:00 -6°C° 0 mm 3 mps 573 mmHg 73%
    05:00 -6°C° 0 mm 3 mps 573 mmHg 74%
    06:00 -6°C° 0 mm 3 mps 572 mmHg 76%
    07:00 -7°C° 0 mm 3 mps 572 mmHg 77%
    08:00 -5°C° 0 mm 3 mps 573 mmHg 78%
    09:00 -4°C° 0 mm 3 mps 573 mmHg 79%
    10:00 -3°C° 0 mm 4 mps 574 mmHg 80%
    11:00 -3°C° 0 mm 4 mps 574 mmHg 82%
    12:00 -2°C° 0 mm 4 mps 573 mmHg 84%
    13:00 -1°C° 0 mm 4 mps 573 mmHg 86%
    14:00 -2°C° 0 mm 4 mps 573 mmHg 86%
    15:00 -2°C° 0 mm 3 mps 573 mmHg 87%
    16:00 -2°C° 0 mm 3 mps 572 mmHg 88%
    17:00 -4°C° 0 mm 3 mps 573 mmHg 89%
    18:00 -4°C° 0 mm 3 mps 573 mmHg 90%
    19:00 -4°C° 0 mm 2 mps 573 mmHg 91%
    20:00 -4°C° 0.2 mm 2 mps 574 mmHg 92%
    21:00 -4°C° 0.2 mm 2 mps 574 mmHg 93%
    22:00 -5°C° 0.2 mm 2 mps 574 mmHg 94%
    23:00 -5°C° 0.2 mm 2 mps 574 mmHg 94%

    26 November, Sunday

    Time Temperature Precipitation Wind Pressure Humidity
    00:00 -5°C° 0.2 mm 2 mps 574 mmHg 95%
    01:00 -6°C° 0.2 mm 2 mps 574 mmHg 95%
    02:00 -4°C° 0.1 mm 1 mps 574 mmHg 95%
    03:00 -4°C° 0.1 mm 1 mps 574 mmHg 95%
    04:00 -4°C° 0.1 mm 1 mps 574 mmHg 95%
    05:00 -6°C° 0.2 mm 1 mps 574 mmHg 95%
    06:00 -6°C° 0.2 mm 1 mps 574 mmHg 94%
    07:00 -6°C° 0.2 mm 1 mps 574 mmHg 94%
    08:00 -7°C° 0.1 mm 2 mps 575 mmHg 92%
    09:00 -6°C° 0.1 mm 2 mps 575 mmHg 91%
    10:00 -6°C° 0.1 mm 2 mps 575 mmHg 89%
    11:00 -6°C° 0.2 mm 2 mps 575 mmHg 88%
    12:00 -6°C° 0.2 mm 2 mps 575 mmHg 86%
    13:00 -7°C° 0.2 mm 3 mps 576 mmHg 85%
    14:00 -8°C° 0.1 mm 3 mps 575 mmHg 86%
    15:00 -9°C° 0.1 mm 3 mps 575 mmHg 87%
    16:00 -8°C° 0.1 mm 2 mps 575 mmHg 87%
    17:00 -10°C° 0 mm 2 mps 575 mmHg 88%
    18:00 -12°C° 0 mm 2 mps 575 mmHg 89%
    19:00 -11°C° 0 mm 1 mps 574 mmHg 90%
    20:00 -12°C° 0 mm 1 mps 574 mmHg 86%
    21:00 -12°C° 0 mm 1 mps 575 mmHg 81%
    22:00 -12°C° 0 mm 1 mps 575 mmHg 76%
    23:00 -12°C° 0 mm 1 mps 575 mmHg 69%
    Show more